[[{"header":{"parameterUnit":"m.s-1","parameterCategory":1,"la1":30.2991,"la2":30.254,"lo1":-89.0895,"lo2":-89.0444,"dy":0.0017,"dx":0.0017,"nx":28,"ny":28,"refTime":"2025-05-21T21:00:00:Z","depth":0,"parameterNumber":2,"parameterNumberName":"U-component_of_WINDS"},"data":[0,0,0,0,0,0,0,0,0,0,0,0,0,0,0,0,0,0,0,0,0,0,0,0,0,0,0,0,0,0,0,0,0,0,0,0,0,0,0,0,0,0,0,0,0,0,0,0,0,0,0,0,0,0,0,0,0,0,2.5144,2.5145,0,2.5185,2.5186,2.5186,2.5161,2.516,2.5158,2.5157,2.5203,2.5205,2.5208,0,0,0,0,0,0,0,0,0,0,0,0,0,2.505,2.5052,2.5144,2.5145,2.5145,2.5185,2.5186,2.5186,2.5161,2.516,2.5158,2.5157,2.5202,2.5205,2.5208,0,0,0,0,0,0,0,0,0,0,0,0,0,2.5091,2.5052,2.5144,2.5138,2.5137,2.5185,2.5186,2.5186,2.5161,2.516,2.5158,2.5156,2.5201,2.5205,2.5208,2.5266,0,0,2.5219,2.522,0,0,0,0,0,0,0,0,2.5089,2.5094,2.5138,2.5138,2.5138,2.5166,2.5169,2.5213,2.5162,2.5152,2.5157,2.5155,2.5192,2.5197,2.5208,2.5268,2.527,2.5219,2.5221,2.5223,2.5224,0,0,0,0,0,0,0,2.5086,2.5093,2.5161,2.5139,2.5139,2.5134,2.5138,2.5177,2.5182,2.5153,2.5151,2.5156,2.5192,2.5205,2.5209,2.5271,2.5219,2.5222,2.5224,2.5226,2.5382,2.5384,0,0,0,0,0,0,2.5083,2.509,2.5159,2.5162,2.5108,2.5137,2.5142,2.5159,2.5182,2.5183,2.5158,2.5155,2.52,2.5205,2.5211,2.528,2.5223,2.5226,2.5228,2.538,2.5382,2.5384,0,0,0,0,0,0,2.5081,2.5089,2.5158,2.5126,2.5134,2.5141,2.5161,2.5161,2.5173,2.5185,2.5186,2.517,2.5199,2.5206,2.5252,2.5281,2.5228,2.5231,2.5377,2.538,2.5383,2.5418,0,0,0,0,0,0,2.5078,2.5089,2.5109,2.5126,2.5136,2.5197,2.5162,2.5163,2.5179,2.5176,2.5197,2.5198,2.5198,2.5247,2.5256,2.5285,2.5234,2.5375,2.5379,2.5382,2.5415,2.5422,2.5429,0,0,0,0,0,2.5075,2.5118,2.511,2.5119,2.5161,2.5199,2.5204,2.5201,2.5181,2.5203,2.5211,2.5198,2.5277,2.5252,2.5262,2.5292,2.5373,2.5378,2.5382,2.5411,2.5421,2.5429,0,0,0,0,0,0,2.5105,2.512,2.5112,2.5161,2.5179,2.5194,2.5221,2.5211,2.5236,2.5232,2.5229,2.5234,2.5283,2.5293,2.5265,2.535,2.5322,2.5329,2.5341,2.535,2.5357,2.5353,2.5237,0,0,0,0,0,2.5117,2.5144,2.5157,2.52,2.5209,2.5214,2.523,2.5227,2.5245,2.5253,2.5264,2.5284,2.5313,2.5333,2.5361,2.5417,2.5422,2.5443,2.545,2.5456,2.5461,2.5492,2.5502,2.5399,2.5399,2.5399,0,0,2.5142,2.5154,2.5172,2.5206,2.5219,2.5249,2.522,2.5253,2.5276,2.5258,2.5302,2.5312,2.5334,2.5386,2.5409,2.5396,2.5491,2.5462,2.5466,2.5468,2.5498,2.5508,2.5516,2.5403,2.5402,2.5401,0,0,2.5203,2.5215,2.5252,2.5266,2.5287,2.529,2.5299,2.5317,2.5322,2.5367,2.5354,2.5383,2.5434,2.545,2.5465,2.5536,2.5525,2.5546,2.5581,2.5612,2.562,2.5627,2.5652,2.5661,2.5551,2.5551,2.5551,0,2.5232,2.5275,2.5273,2.5306,2.5322,2.5308,2.5346,2.5361,2.539,2.5402,2.5386,2.545,2.5465,2.552,2.5537,2.5551,2.5562,2.5541,2.5619,2.5626,2.5632,2.5656,2.5665,2.5553,2.5553,2.5553,2.5553,0,2.531,2.5341,2.5369,2.5396,2.5416,2.5452,2.5456,2.5476,2.5473,2.5478,2.5525,2.5542,2.5573,2.5586,2.5583,2.5642,2.5633,2.5619,2.559,2.5644,2.5666,2.5676,2.5557,2.5556,2.5555,2.5555,0,0,2.5387,2.5415,2.5425,2.5437,2.5461,2.5485,2.5522,2.5552,2.5569,2.5591,2.5622,2.5667,2.5654,2.5671,2.567,2.5697,2.5752,2.5679,2.568,2.5691,2.5818,2.5828,2.5838,2.5746,2.5748,2.5749,2.5816,0,2.5449,2.5511,2.5511,2.5568,2.5597,2.5586,2.5619,2.5637,2.5645,2.5672,2.5681,2.5712,2.5693,2.5703,2.5729,2.574,2.5777,2.5735,2.5775,2.5777,2.5767,2.585,2.5859,2.5921,2.5825,2.5826,2.5827,0,2.5528,2.5551,2.5612,2.5632,2.5644,2.5673,2.5701,2.5727,2.5749,2.5753,2.5773,2.5769,2.5808,2.578,2.5835,2.5806,2.5823,2.5831,2.5834,2.5836,2.5803,2.5852,2.5941,2.595,2.5841,2.584,2.5839,0,2.5576,2.5624,2.5666,2.5678,2.5703,2.5724,2.5735,2.5756,2.5774,2.58,2.5812,2.5843,2.5859,2.5883,2.5888,2.5868,2.5943,2.5916,2.5947,2.5947,2.5961,2.596,2.6052,2.5976,2.5976,2.5976,2.5976,0,2.5644,2.5681,2.5689,2.5714,2.5757,2.5758,2.58,2.5811,2.5829,2.5858,2.5852,2.588,2.5885,2.5915,2.592,2.5964,2.5972,2.5976,2.5977,2.5976,2.5975,2.5985,2.598,2.5978,2.5978,2.5977,2.5977,0,2.5703,2.571,2.5756,2.5776,2.5783,2.5813,2.5831,2.5857,2.5865,2.5902,2.5911,2.5924,2.5958,2.5966,2.6008,2.6011,2.6063,2.606,2.6055,2.6054,2.6085,2.6081,2.6185,2.6199,2.6115,2.6116,2.6117,0,2.5744,2.5773,2.5797,2.5815,2.5828,2.5858,2.5877,2.5881,2.5901,2.593,2.5953,2.5987,2.6013,2.607,2.6083,2.6116,2.6112,2.6147,2.6117,2.6115,2.6111,2.6109,2.6111,2.6152,2.6153,2.6153,2.6154,0,2.5816,2.5819,2.5846,2.5875,2.5898,2.5921,2.5943,2.5959,2.5967,2.599,2.6025,2.6046,2.6089,2.6122,2.6155,2.6169,2.6163,2.6164,2.6172,2.617,2.6165,2.6167,2.6068,2.616,2.616,2.6159,2.6159,2.6159,2.5867,2.5892,2.5913,2.5944,2.5961,2.5983,2.6008,2.602,2.6049,2.6082,2.6084,2.6122,2.6147,2.619,2.6206,2.6237,2.6226,2.6239,2.6242,2.6245,2.6247,2.6163,2.6243,2.6243,2.6243,2.6242,2.6242,0,2.5937,2.5951,2.5979,2.6011,2.6036,2.6029,2.6054,2.6075,2.6108,2.6131,2.6158,2.6199,2.6233,2.625,2.6284,2.6305,2.6303,2.6314,2.6311,2.6314,2.6255,2.6243,2.6315,2.6315,2.6315,2.6315,2.6315,2.6315,2.5976,2.6018,2.6024,2.6075,2.6089,2.6126,2.6141,2.6161,2.6179,2.6225,2.6252,2.6264,2.6285,2.6321,2.6352,2.6356,2.6368,2.638,2.6383,2.6326,2.6319,2.6311,2.63,2.6383,2.6383,2.644,2.644,2.644]},{"header":{"parameterUnit":"m.s-1","parameterCategory":1,"la1":30.2991,"la2":30.254,"lo1":-89.0895,"lo2":-89.0444,"dy":0.0017,"dx":0.0017,"nx":28,"ny":28,"refTime":"2025-05-21T21:00:00:Z","depth":0,"parameterNumber":3,"parameterNumberName":"V-component_of_WINDS"},"data":[0,0,0,0,0,0,0,0,0,0,0,0,0,0,0,0,0,0,0,0,0,0,0,0,0,0,0,0,0,0,0,0,0,0,0,0,0,0,0,0,0,0,0,0,0,0,0,0,0,0,0,0,0,0,0,0,0,0,4.4711,4.4712,0,4.4811,4.4812,4.4813,4.4855,4.4855,4.4855,4.4855,4.4947,4.495,4.4952,0,0,0,0,0,0,0,0,0,0,0,0,0,4.4544,4.4547,4.4711,4.4712,4.4713,4.4811,4.4812,4.4813,4.4855,4.4855,4.4855,4.4855,4.4946,4.4949,4.4952,0,0,0,0,0,0,0,0,0,0,0,0,0,4.4627,4.4548,4.4711,4.4746,4.475,4.481,4.4812,4.4814,4.4855,4.4855,4.4855,4.4855,4.4945,4.4949,4.4953,4.4982,0,0,4.4965,4.4967,0,0,0,0,0,0,0,0,4.4622,4.4633,4.474,4.4744,4.4749,4.4821,4.4787,4.487,4.4855,4.4815,4.4855,4.4855,4.4905,4.4912,4.4931,4.4986,4.499,4.4965,4.4968,4.4969,4.497,0,0,0,0,0,0,0,4.4616,4.4629,4.475,4.4741,4.4747,4.4753,4.4765,4.4803,4.486,4.4819,4.4822,4.4834,4.4907,4.4927,4.4933,4.4991,4.4965,4.4969,4.4971,4.4972,4.5072,4.5072,0,0,0,0,0,0,4.4606,4.4624,4.4747,4.4753,4.4684,4.4756,4.4769,4.4798,4.4859,4.4869,4.4834,4.4835,4.492,4.4929,4.4937,4.4973,4.4969,4.4973,4.4975,4.5072,4.5072,4.5072,0,0,0,0,0,0,4.4603,4.4617,4.4743,4.469,4.4706,4.476,4.4791,4.48,4.482,4.4871,4.488,4.4845,4.492,4.4931,4.497,4.4977,4.4975,4.4978,4.5071,4.5072,4.5072,4.5047,0,0,0,0,0,0,4.4598,4.4616,4.463,4.469,4.4709,4.4778,4.4791,4.4802,4.4828,4.4831,4.4884,4.4892,4.4921,4.4964,4.4974,4.4982,4.4981,4.5071,4.5071,4.5072,4.5048,4.5047,4.5046,0,0,0,0,0,4.4592,4.4617,4.4631,4.4645,4.4729,4.4779,4.4789,4.4825,4.4828,4.4841,4.4873,4.4891,4.4974,4.4968,4.4979,4.4989,4.5071,4.5071,4.5072,4.5048,4.5047,4.5046,0,0,0,0,0,0,4.4554,4.4626,4.4642,4.4688,4.4728,4.4786,4.4804,4.4823,4.486,4.4861,4.49,4.4911,4.4947,4.4971,4.4963,4.5018,4.5023,4.5026,4.5001,4.5001,4.5,4.4993,4.4984,0,0,0,0,0,4.4552,4.4591,4.4649,4.4685,4.4704,4.475,4.4773,4.4798,4.4838,4.4854,4.489,4.4925,4.496,4.4981,4.5016,4.5051,4.5061,4.5063,4.5062,4.5061,4.5063,4.5081,4.5082,4.5074,4.5074,4.5074,0,0,4.4547,4.4591,4.4612,4.4678,4.4712,4.4747,4.4764,4.4801,4.4826,4.4859,4.4899,4.4925,4.4967,4.5004,4.5022,4.5026,4.5067,4.5062,4.5061,4.5063,4.5082,4.5082,4.5083,4.5075,4.5075,4.5075,0,0,4.4555,4.4594,4.4627,4.466,4.4711,4.4741,4.4748,4.4804,4.4824,4.4865,4.489,4.4918,4.4977,4.5006,4.5028,4.5044,4.506,4.5053,4.5049,4.5066,4.5067,4.5067,4.5072,4.5073,4.5055,4.5055,4.5055,0,4.4542,4.46,4.464,4.4676,4.4703,4.4736,4.4767,4.4796,4.4854,4.487,4.4874,4.4947,4.4978,4.5021,4.5025,4.5042,4.5049,4.5048,4.5064,4.5065,4.5066,4.5071,4.5073,4.5054,4.5054,4.5054,4.5054,0,4.4579,4.4618,4.4638,4.4697,4.4725,4.4758,4.4799,4.4823,4.4843,4.4871,4.4911,4.4949,4.4991,4.5002,4.5022,4.5047,4.5048,4.5057,4.5063,4.5065,4.507,4.5072,4.5052,4.5053,4.5053,4.5053,0,0,4.4569,4.4649,4.4655,4.4681,4.4739,4.4768,4.48,4.4844,4.4862,4.4899,4.4926,4.4974,4.4983,4.5008,4.503,4.5045,4.5053,4.5052,4.5054,4.505,4.5081,4.5074,4.5075,4.5064,4.5064,4.5065,4.5077,0,4.4585,4.465,4.4685,4.4733,4.4768,4.4798,4.4826,4.4861,4.4888,4.4918,4.4945,4.4979,4.4989,4.5004,4.502,4.5049,4.506,4.5048,4.5085,4.5086,4.5075,4.5078,4.5071,4.5082,4.5079,4.508,4.508,0,4.4614,4.4654,4.4706,4.4757,4.4773,4.4798,4.484,4.4869,4.4908,4.4926,4.4953,4.4975,4.5006,4.5009,4.5051,4.5042,4.5059,4.5075,4.5076,4.5081,4.5084,4.5083,4.5086,4.5087,4.5084,4.5083,4.5083,0,4.46,4.4666,4.4706,4.4727,4.4788,4.4805,4.483,4.487,4.4893,4.4928,4.4943,4.4979,4.4999,4.5025,4.5055,4.5054,4.5092,4.5098,4.5106,4.5105,4.5113,4.5112,4.5119,4.5123,4.5123,4.5123,4.5123,0,4.4614,4.4644,4.4701,4.4725,4.4758,4.4796,4.4826,4.4854,4.4888,4.4915,4.4942,4.4966,4.5004,4.5031,4.5054,4.5084,4.5092,4.5105,4.5111,4.5103,4.5101,4.5115,4.5115,4.5124,4.5124,4.5124,4.5124,0,4.4605,4.4645,4.4689,4.4744,4.4758,4.478,4.4825,4.4847,4.4874,4.4907,4.4917,4.4959,4.4992,4.5024,4.5068,4.5083,4.5112,4.512,4.51,4.5104,4.5109,4.5108,4.5125,4.5128,4.513,4.513,4.513,0,4.4612,4.4637,4.4694,4.4716,4.4742,4.4776,4.48,4.4837,4.486,4.4906,4.4921,4.4957,4.4988,4.5039,4.5071,4.5104,4.5112,4.5116,4.5117,4.5108,4.5112,4.511,4.5112,4.5115,4.5115,4.5114,4.5114,0,4.462,4.4638,4.4674,4.4716,4.4745,4.4779,4.4813,4.4828,4.4871,4.4895,4.4931,4.4955,4.5,4.5035,4.5071,4.5093,4.511,4.5113,4.5117,4.5109,4.5097,4.5103,4.5098,4.5113,4.5113,4.5113,4.5113,4.5113,4.4619,4.4641,4.4685,4.4723,4.4754,4.4785,4.4808,4.4839,4.4871,4.4913,4.4931,4.4967,4.5002,4.5053,4.5075,4.51,4.5105,4.511,4.5111,4.5112,4.511,4.5093,4.5107,4.5107,4.5107,4.5107,4.5107,0,4.4627,4.4657,4.4692,4.4741,4.4769,4.4785,4.4823,4.4846,4.4878,4.4911,4.4941,4.4981,4.5014,4.5048,4.5081,4.5095,4.5104,4.5103,4.5102,4.5107,4.5104,4.5098,4.5096,4.5096,4.5096,4.5096,4.5096,4.5096,4.4635,4.4674,4.4696,4.4748,4.4776,4.4814,4.4834,4.4862,4.4888,4.4933,4.4961,4.4984,4.5016,4.5052,4.5082,4.509,4.5101,4.5098,4.5109,4.5106,4.5107,4.5108,4.5102,4.51,4.51,4.5109,4.5109,4.5109]}]]